[[{"header":{"parameterUnit":"m.s-1","parameterCategory":2,"la1":30.2991,"la2":30.254,"lo1":-89.0895,"lo2":-89.0444,"dy":0.0017,"dx":0.0017,"nx":28,"ny":28,"refTime":"2024-03-17T09:00:00:Z","depth":"0","parameterNumber":2,"parameterNumberName":"U-component_of_CURRENTS"},"data":[0,0,0,0,0,0,0,0,0,0,0,0,0,0,0,0,0,0,0,0,0,0,0,0,0,0,0,0,0,0,0,0,0,0,0,0,0,0,0,0,0,0,0,0,0,0,0,0,0,0,0,0,0,0,0,0,0,0,0.3577,0.3578,0,0.3637,0.3637,0.3638,0.365,0.365,0.365,0.365,0.3669,0.3669,0.367,0,0,0,0,0,0,0,0,0,0,0,0,0,0.3492,0.3493,0.3577,0.3578,0.358,0.3637,0.3637,0.3638,0.365,0.365,0.365,0.365,0.3669,0.3669,0.367,0,0,0,0,0,0,0,0,0,0,0,0,0,0.3533,0.3493,0.3577,0.3596,0.3599,0.3637,0.3637,0.3638,0.365,0.365,0.365,0.365,0.3668,0.3669,0.367,0.3675,0,0,0.3672,0.3673,0,0,0,0,0,0,0,0,0.3531,0.3536,0.3592,0.3595,0.3598,0.364,0.3614,0.365,0.365,0.3626,0.365,0.365,0.3659,0.366,0.3665,0.3676,0.3677,0.3672,0.3673,0.3673,0.3673,0,0,0,0,0,0,0,0.3528,0.3534,0.3596,0.3594,0.3597,0.3608,0.3613,0.3621,0.3637,0.3628,0.363,0.3644,0.3659,0.3665,0.3666,0.3677,0.3672,0.3673,0.3673,0.3674,0.3766,0.3768,0,0,0,0,0,0,0.3529,0.3531,0.3594,0.3598,0.3569,0.361,0.3616,0.3623,0.3638,0.3642,0.3644,0.3645,0.3663,0.3665,0.3666,0.3731,0.3673,0.3674,0.3674,0.3764,0.3766,0.3769,0,0,0,0,0,0,0.3527,0.3534,0.3592,0.357,0.3579,0.3612,0.362,0.3624,0.3634,0.3652,0.3654,0.3651,0.3663,0.3665,0.3704,0.373,0.3674,0.3675,0.3762,0.3765,0.3767,0.3824,0,0,0,0,0,0,0.3524,0.3533,0.3535,0.357,0.358,0.3626,0.362,0.3626,0.3645,0.3646,0.3658,0.366,0.3663,0.3703,0.3704,0.373,0.3675,0.3759,0.3763,0.3766,0.382,0.3828,0.3836,0,0,0,0,0,0.3521,0.353,0.3534,0.3542,0.3583,0.3628,0.3634,0.3654,0.3646,0.3659,0.368,0.366,0.3727,0.3705,0.3707,0.3733,0.3757,0.3762,0.3766,0.3816,0.3827,0.3836,0,0,0,0,0,0,0.3489,0.3533,0.3539,0.3558,0.3595,0.3632,0.3647,0.3655,0.368,0.3681,0.3684,0.3689,0.373,0.3728,0.3703,0.3773,0.3739,0.3744,0.3776,0.3786,0.3794,0.381,0.3676,0,0,0,0,0,0.3484,0.3506,0.3547,0.3565,0.3582,0.3611,0.3629,0.3647,0.3677,0.3687,0.3698,0.3718,0.3749,0.3765,0.3783,0.382,0.3855,0.3839,0.3848,0.3855,0.3871,0.3948,0.3965,0.3783,0.3783,0.3783,0,0,0.348,0.3506,0.3519,0.3561,0.3586,0.3624,0.3621,0.3658,0.3696,0.3685,0.373,0.3742,0.3765,0.3813,0.3831,0.3816,0.3931,0.386,0.3866,0.3879,0.3954,0.3972,0.3988,0.3786,0.3786,0.3785,0,0,0.3489,0.3503,0.3526,0.3557,0.3606,0.3634,0.3645,0.3687,0.3712,0.3763,0.3768,0.3806,0.3839,0.3872,0.3891,0.3956,0.3968,0.3954,0.4012,0.4087,0.4102,0.4116,0.421,0.4231,0.3962,0.3962,0.3963,0,0.3482,0.3515,0.3541,0.3572,0.3607,0.3639,0.3678,0.3713,0.3764,0.38,0.3788,0.3871,0.3875,0.3955,0.398,0.3974,0.4026,0.3969,0.4098,0.4112,0.4126,0.4218,0.4241,0.3966,0.3965,0.3965,0.3965,0,0.3511,0.3538,0.3557,0.3612,0.3649,0.3692,0.3749,0.379,0.382,0.386,0.3939,0.3963,0.4019,0.4021,0.4021,0.4119,0.413,0.4095,0.4071,0.4148,0.424,0.4263,0.397,0.3969,0.3968,0.3967,0,0,0.3501,0.3566,0.3572,0.3606,0.3677,0.3716,0.3788,0.3873,0.3936,0.398,0.4061,0.4113,0.4128,0.4152,0.4156,0.4214,0.435,0.42,0.4202,0.4291,0.4546,0.456,0.4587,0.4339,0.4342,0.4345,0.4581,0,0.3521,0.3578,0.3614,0.3685,0.3726,0.3785,0.3856,0.3934,0.4005,0.4089,0.4135,0.421,0.418,0.4217,0.4273,0.4324,0.4411,0.4291,0.446,0.4466,0.4467,0.4613,0.44,0.4593,0.4604,0.4607,0.461,0,0.3541,0.3582,0.3643,0.3738,0.3763,0.381,0.394,0.4011,0.4135,0.4193,0.4277,0.4315,0.4417,0.4366,0.4533,0.4462,0.4522,0.4558,0.4567,0.4576,0.4524,0.4513,0.4634,0.4488,0.4646,0.4643,0.4641,0,0.3529,0.3608,0.3659,0.3687,0.3794,0.3842,0.391,0.4037,0.4125,0.4265,0.4342,0.4454,0.4529,0.4613,0.4701,0.4632,0.4885,0.4793,0.4877,0.4879,0.473,0.4713,0.4723,0.4936,0.4936,0.4935,0.4934,0,0.3548,0.3591,0.3653,0.3684,0.377,0.384,0.3957,0.4047,0.4185,0.4309,0.4391,0.4517,0.4595,0.4737,0.4782,0.4938,0.4969,0.4941,0.4957,0.4747,0.4729,0.4617,0.455,0.4944,0.4942,0.494,0.4938,0,0.3547,0.3577,0.3648,0.374,0.3765,0.3834,0.3973,0.4075,0.4198,0.4362,0.4414,0.4603,0.4805,0.4907,0.5075,0.5065,0.5052,0.5232,0.4999,0.4983,0.487,0.4814,0.4738,0.4601,0.5351,0.5353,0.5354,0,0.3555,0.3581,0.3673,0.3737,0.3782,0.3877,0.3957,0.407,0.4176,0.4428,0.4509,0.4752,0.4921,0.519,0.5236,0.537,0.5172,0.5234,0.505,0.4893,0.4842,0.4629,0.4501,0.4886,0.4883,0.4882,0.488,0,0.3595,0.362,0.3698,0.3797,0.3874,0.395,0.4056,0.4115,0.4274,0.4417,0.4642,0.4794,0.5056,0.5104,0.5273,0.5305,0.4957,0.5202,0.5077,0.4543,0.427,0.4133,0.4724,0.4863,0.4865,0.4866,0.4867,0.4868,0.3657,0.3706,0.38,0.3883,0.396,0.4008,0.4027,0.415,0.4272,0.4425,0.4643,0.4784,0.4903,0.5111,0.5112,0.4947,0.4929,0.4766,0.474,0.456,0.4325,0.4918,0.5045,0.5047,0.5049,0.5051,0.5053,0,0.3746,0.3792,0.3886,0.3959,0.3991,0.4022,0.4084,0.4065,0.4141,0.4346,0.4509,0.4597,0.464,0.4669,0.4622,0.4475,0.4212,0.4349,0.3944,0.3863,0.443,0.4303,0.4224,0.4224,0.4224,0.4225,0.4225,0.4225,0.3824,0.3903,0.3899,0.3934,0.3965,0.3919,0.3904,0.3895,0.3969,0.4016,0.4042,0.4152,0.4265,0.4323,0.4155,0.4055,0.3718,0.3583,0.3593,0.3938,0.397,0.4001,0.3863,0.3693,0.3693,0.2799,0.2792,0.2787]},{"header":{"parameterUnit":"m.s-1","parameterCategory":2,"la1":30.2991,"la2":30.254,"lo1":-89.0895,"lo2":-89.0444,"dy":0.0017,"dx":0.0017,"nx":28,"ny":28,"refTime":"2024-03-17T09:00:00:Z","depth":"0","parameterNumber":3,"parameterNumberName":"V-component_of_CURRENTS"},"data":[0,0,0,0,0,0,0,0,0,0,0,0,0,0,0,0,0,0,0,0,0,0,0,0,0,0,0,0,0,0,0,0,0,0,0,0,0,0,0,0,0,0,0,0,0,0,0,0,0,0,0,0,0,0,0,0,0,0,-0.0417,-0.0418,0,-0.0501,-0.0501,-0.0502,-0.0571,-0.0572,-0.0572,-0.0573,-0.0728,-0.0731,-0.0734,0,0,0,0,0,0,0,0,0,0,0,0,0,-0.0373,-0.0373,-0.0417,-0.0419,-0.042,-0.05,-0.0501,-0.0502,-0.057,-0.0572,-0.0573,-0.0574,-0.0727,-0.073,-0.0734,0,0,0,0,0,0,0,0,0,0,0,0,0,-0.0416,-0.0373,-0.0417,-0.0465,-0.047,-0.05,-0.0501,-0.0503,-0.057,-0.0572,-0.0573,-0.0574,-0.0725,-0.073,-0.0735,-0.0738,0,0,-0.075,-0.0752,0,0,0,0,0,0,0,0,-0.0413,-0.0417,-0.0457,-0.0462,-0.0468,-0.0528,-0.0543,-0.0586,-0.057,-0.053,-0.0573,-0.0575,-0.0668,-0.0678,-0.0686,-0.0745,-0.0752,-0.075,-0.0753,-0.0755,-0.0757,0,0,0,0,0,0,0,-0.041,-0.0414,-0.0448,-0.0458,-0.0465,-0.0502,-0.0508,-0.0551,-0.059,-0.0534,-0.0539,-0.0551,-0.0671,-0.0681,-0.0691,-0.0754,-0.075,-0.0755,-0.0758,-0.0759,-0.0876,-0.0876,0,0,0,0,0,0,-0.0399,-0.0411,-0.0446,-0.0451,-0.0446,-0.0501,-0.0509,-0.0506,-0.0588,-0.0602,-0.055,-0.0554,-0.0672,-0.0685,-0.0697,-0.0724,-0.0755,-0.076,-0.0763,-0.0876,-0.0876,-0.0876,0,0,0,0,0,0,-0.0398,-0.0401,-0.0442,-0.0436,-0.0444,-0.05,-0.0497,-0.0507,-0.0518,-0.06,-0.0616,-0.0551,-0.0674,-0.069,-0.0746,-0.073,-0.0762,-0.0767,-0.0876,-0.0876,-0.0876,-0.0767,0,0,0,0,0,0,-0.0396,-0.0399,-0.0389,-0.0434,-0.0444,-0.0449,-0.0496,-0.0508,-0.0524,-0.053,-0.0606,-0.0622,-0.0676,-0.0738,-0.0751,-0.0738,-0.077,-0.0875,-0.0876,-0.0876,-0.0771,-0.0764,-0.0758,0,0,0,0,0,-0.0394,-0.0373,-0.0387,-0.0392,-0.0428,-0.0449,-0.0456,-0.0501,-0.0523,-0.0517,-0.0584,-0.062,-0.0749,-0.0742,-0.0757,-0.0745,-0.0875,-0.0876,-0.0876,-0.0774,-0.0765,-0.0758,0,0,0,0,0,0,-0.0342,-0.0379,-0.0396,-0.0386,-0.0411,-0.0461,-0.0458,-0.0489,-0.0533,-0.0545,-0.0622,-0.0642,-0.0683,-0.0733,-0.0723,-0.0782,-0.0817,-0.082,-0.0735,-0.0727,-0.0721,-0.0689,-0.0774,0,0,0,0,0,-0.0325,-0.0322,-0.0362,-0.0351,-0.0359,-0.0404,-0.0417,-0.0448,-0.0496,-0.0516,-0.057,-0.0637,-0.0693,-0.0726,-0.0778,-0.0809,-0.0834,-0.0813,-0.0806,-0.08,-0.0786,-0.083,-0.0826,-0.0877,-0.0877,-0.0877,0,0,-0.0303,-0.0322,-0.032,-0.0341,-0.0361,-0.0359,-0.0414,-0.0425,-0.0432,-0.0527,-0.0547,-0.061,-0.0696,-0.0733,-0.0756,-0.0776,-0.0793,-0.0801,-0.0795,-0.0784,-0.083,-0.0825,-0.082,-0.0877,-0.0877,-0.0877,0,0,-0.0252,-0.0268,-0.0247,-0.0261,-0.029,-0.032,-0.0318,-0.0361,-0.0388,-0.0422,-0.0493,-0.0547,-0.0627,-0.0682,-0.0724,-0.0714,-0.0754,-0.0734,-0.0678,-0.0721,-0.0716,-0.0712,-0.0703,-0.07,-0.0735,-0.0734,-0.0734,0,-0.0225,-0.0206,-0.0243,-0.0226,-0.0233,-0.0294,-0.0275,-0.0305,-0.0364,-0.0382,-0.0418,-0.0531,-0.06,-0.0651,-0.0656,-0.0695,-0.0713,-0.0695,-0.0709,-0.0706,-0.0704,-0.0696,-0.0694,-0.0729,-0.073,-0.073,-0.0731,0,-0.0165,-0.0149,-0.0134,-0.0135,-0.0143,-0.0139,-0.0185,-0.0198,-0.0242,-0.0284,-0.0337,-0.0434,-0.05,-0.0534,-0.0597,-0.0619,-0.0632,-0.0688,-0.0718,-0.0692,-0.0686,-0.0685,-0.0722,-0.0724,-0.0725,-0.0726,0,0,-0.0112,-0.0097,-0.0091,-0.0073,-0.0099,-0.0096,-0.0102,-0.0128,-0.0127,-0.0199,-0.0203,-0.0316,-0.0366,-0.0417,-0.0497,-0.0545,-0.0543,-0.0605,-0.061,-0.0575,-0.0598,-0.0534,-0.0527,-0.0606,-0.0606,-0.0606,-0.0585,0,-0.0058,0.0003,-0.0016,0.0033,0.0059,0.0009,0.0011,-0.0022,-0.0066,-0.0083,-0.0188,-0.0223,-0.0323,-0.0347,-0.0413,-0.0513,-0.0543,-0.0541,-0.0647,-0.0648,-0.0579,-0.0525,-0.0489,-0.0461,-0.0584,-0.0584,-0.0584,0,0.0003,0.0034,0.01,0.0121,0.0127,0.0144,0.0141,0.0134,0.0084,0.0049,-0.0009,-0.0083,-0.0155,-0.0246,-0.0383,-0.0379,-0.0471,-0.0551,-0.0553,-0.0531,-0.0584,-0.0518,-0.0456,-0.0687,-0.0584,-0.0584,-0.0584,0,0.0064,0.011,0.0167,0.0176,0.0191,0.0211,0.0212,0.0182,0.0193,0.0152,0.0165,0.0044,0.0022,-0.0134,-0.0283,-0.0339,-0.0413,-0.0516,-0.0536,-0.0532,-0.0538,-0.0533,-0.0696,-0.0599,-0.0599,-0.0599,-0.0599,0,0.0124,0.0167,0.0208,0.0242,0.0306,0.029,0.0346,0.0324,0.0324,0.0372,0.0249,0.0282,0.0046,-0.0026,-0.021,-0.0329,-0.0352,-0.0494,-0.052,-0.0495,-0.0487,-0.0721,-0.0853,-0.0598,-0.0599,-0.0599,-0.0599,0,0.018,0.0205,0.0274,0.0319,0.0343,0.0391,0.045,0.0485,0.0478,0.0548,0.0552,0.048,0.041,0.0201,-0.0005,-0.0186,-0.0442,-0.0381,-0.0298,-0.0315,-0.0576,-0.07,-0.0841,-0.0924,-0.0416,-0.0414,-0.0413,0,0.0213,0.026,0.0344,0.0387,0.0413,0.0488,0.0539,0.0561,0.0618,0.069,0.074,0.0718,0.0751,0.0502,0.0191,-0.006,-0.0321,-0.0235,-0.0354,-0.055,-0.0712,-0.0811,-0.088,-0.0313,-0.0311,-0.0309,-0.0308,0,0.0271,0.0302,0.036,0.0455,0.0529,0.0615,0.0704,0.0786,0.0842,0.0949,0.1094,0.115,0.0965,0.0768,0.042,0.0185,-0.0375,-0.0205,-0.0461,-0.0666,-0.0735,-0.0839,-0.0341,-0.0292,-0.0294,-0.0295,-0.0296,-0.0296,0.0306,0.0353,0.043,0.0517,0.061,0.0726,0.0825,0.096,0.113,0.1349,0.1391,0.1598,0.1246,0.0805,0.045,-0.0194,-0.0229,-0.0433,-0.0567,-0.0648,-0.0737,-0.0157,-0.0112,-0.0113,-0.0113,-0.0114,-0.0114,0,0.0337,0.039,0.0475,0.0591,0.0702,0.0741,0.092,0.106,0.1314,0.1624,0.1833,0.1889,0.1409,0.0855,0.0004,-0.0483,-0.0708,-0.0775,-0.097,-0.1026,-0.0557,-0.0564,-0.0551,-0.0551,-0.0551,-0.0551,-0.055,-0.055,0.0345,0.0426,0.0472,0.0648,0.074,0.0916,0.1031,0.1279,0.1549,0.2001,0.2278,0.2438,0.2014,0.0431,-0.0692,-0.0969,-0.1326,-0.1363,-0.1555,-0.1318,-0.1299,-0.1282,-0.1323,-0.147,-0.1471,-0.1973,-0.1978,-0.1982]}],[{"header":{"parameterUnit":"m.s-1","parameterCategory":2,"la1":30.2991,"la2":30.254,"lo1":-89.0895,"lo2":-89.0444,"dy":0.0017,"dx":0.0017,"nx":28,"ny":28,"refTime":"2024-03-17T09:00:00:Z","depth":"2","parameterNumber":2,"parameterNumberName":"U-component_of_CURRENTS"},"data":[0,0,0,0,0,0,0,0,0,0,0,0,0,0,0,0,0,0,0,0,0,0,0,0,0,0,0,0,0,0,0,0,0,0,0,0,0,0,0,0,0,0,0,0,0,0,0,0,0,0,0,0,0,0,0,0,0,0,0.2738,0.2738,0,0.2814,0.2815,0.2816,0.2863,0.2863,0.2863,0.2863,0.2924,0.2926,0.2927,0,0,0,0,0,0,0,0,0,0,0,0,0,0.2662,0.2663,0.2737,0.2738,0.274,0.2814,0.2815,0.2816,0.2863,0.2863,0.2863,0.2864,0.2924,0.2926,0.2927,0,0,0,0,0,0,0,0,0,0,0,0,0,0.2712,0.2664,0.2737,0.2772,0.2776,0.2814,0.2815,0.2817,0.2863,0.2863,0.2863,0.2864,0.2923,0.2926,0.2928,0.2932,0,0,0.2934,0.2935,0,0,0,0,0,0,0,0,0.2709,0.2715,0.2766,0.277,0.2774,0.283,0.2811,0.2855,0.2862,0.2829,0.2863,0.2864,0.2891,0.2896,0.2909,0.2935,0.2938,0.2934,0.2935,0.2936,0.2937,0,0,0,0,0,0,0,0.2706,0.2712,0.2768,0.2767,0.2772,0.2795,0.2802,0.282,0.2856,0.2832,0.2836,0.2845,0.2893,0.2907,0.2911,0.2939,0.2934,0.2936,0.2937,0.2938,0.3019,0.302,0,0,0,0,0,0,0.2695,0.2709,0.2765,0.277,0.2743,0.2796,0.2804,0.2811,0.2857,0.2864,0.2845,0.2847,0.2903,0.2908,0.2913,0.3007,0.2936,0.2938,0.2939,0.3018,0.3019,0.302,0,0,0,0,0,0,0.2693,0.2699,0.2762,0.2741,0.2751,0.2796,0.2805,0.2812,0.284,0.2866,0.2874,0.2866,0.2904,0.291,0.2937,0.3006,0.2939,0.2941,0.3017,0.3018,0.302,0.3139,0,0,0,0,0,0,0.2691,0.2698,0.2713,0.2741,0.2752,0.2803,0.2804,0.2814,0.2845,0.2849,0.2887,0.2892,0.2905,0.2933,0.2939,0.3008,0.2942,0.3016,0.3018,0.3019,0.3134,0.3144,0.3153,0,0,0,0,0,0.2688,0.2696,0.2713,0.2721,0.2766,0.2805,0.2813,0.2846,0.2845,0.2869,0.2882,0.2892,0.2949,0.2935,0.2941,0.3013,0.3015,0.3017,0.3019,0.313,0.3142,0.3153,0,0,0,0,0,0,0.2662,0.2703,0.2722,0.2741,0.2782,0.2813,0.2836,0.2851,0.288,0.2887,0.2897,0.2904,0.2956,0.295,0.2935,0.3035,0.2987,0.299,0.3068,0.308,0.309,0.3095,0.2944,0,0,0,0,0,0.2665,0.2688,0.273,0.2747,0.2769,0.2804,0.2826,0.2853,0.2876,0.2891,0.2913,0.2935,0.2967,0.2993,0.3011,0.3063,0.3069,0.311,0.312,0.3128,0.3133,0.3214,0.3234,0.3027,0.3027,0.3027,0,0,0.2657,0.2684,0.2697,0.2746,0.2776,0.2819,0.2818,0.2861,0.2906,0.2891,0.2949,0.2965,0.298,0.3045,0.307,0.3055,0.3185,0.3131,0.3139,0.3138,0.3219,0.324,0.3258,0.3028,0.3028,0.3028,0,0,0.2659,0.2681,0.2712,0.2748,0.2808,0.2836,0.285,0.2899,0.2935,0.2986,0.2992,0.3039,0.308,0.3122,0.3142,0.3207,0.3224,0.322,0.3296,0.3377,0.3395,0.3412,0.3432,0.3449,0.3239,0.3239,0.324,0,0.266,0.2699,0.2726,0.2769,0.2807,0.2843,0.2893,0.2932,0.2986,0.3027,0.3017,0.3106,0.3121,0.3214,0.3245,0.3237,0.3263,0.326,0.3394,0.3411,0.3426,0.3442,0.346,0.3245,0.3245,0.3244,0.3243,0,0.2688,0.2731,0.2748,0.282,0.2862,0.2909,0.2969,0.3021,0.306,0.3105,0.3199,0.3223,0.3287,0.3307,0.3301,0.3425,0.34,0.3393,0.3376,0.3455,0.3465,0.3482,0.3254,0.3252,0.325,0.3248,0,0,0.2675,0.2759,0.2768,0.2816,0.29,0.2936,0.3018,0.3112,0.3171,0.3239,0.333,0.3398,0.3427,0.3449,0.3467,0.3534,0.3658,0.3522,0.3524,0.3559,0.3812,0.3751,0.3762,0.3698,0.3702,0.3705,0.3773,0,0.2706,0.278,0.2825,0.2909,0.2957,0.3025,0.3095,0.3182,0.3252,0.3344,0.3414,0.3489,0.3481,0.3526,0.3606,0.3641,0.371,0.3638,0.3713,0.3714,0.3668,0.3783,0.3495,0.3529,0.3788,0.3791,0.3793,0,0.2735,0.2782,0.2863,0.2968,0.2997,0.305,0.3177,0.3251,0.3382,0.3439,0.3546,0.3593,0.3712,0.3682,0.3822,0.3786,0.3816,0.3829,0.3833,0.3746,0.3686,0.3492,0.3549,0.382,0.3818,0.3816,0.3814,0,0.2713,0.2818,0.2882,0.2915,0.3029,0.3088,0.3159,0.3282,0.3378,0.3505,0.3589,0.371,0.3799,0.3869,0.3931,0.3894,0.4064,0.4011,0.3974,0.3967,0.3717,0.3683,0.4116,0.4115,0.4115,0.4115,0.4115,0,0.2736,0.2786,0.2873,0.2904,0.2996,0.3079,0.3218,0.3277,0.3432,0.3533,0.3644,0.3747,0.3862,0.3976,0.3989,0.4052,0.4126,0.4009,0.4006,0.3746,0.3715,0.3956,0.3937,0.4118,0.4117,0.4117,0.4116,0,0.2718,0.2768,0.2854,0.2961,0.2988,0.3064,0.3253,0.3327,0.3472,0.361,0.366,0.3834,0.3953,0.4049,0.4156,0.4132,0.4172,0.417,0.3833,0.379,0.3989,0.3975,0.4115,0.4114,0.4113,0.4112,0.4112,0,0.2725,0.2753,0.2871,0.2896,0.2947,0.3079,0.3137,0.3314,0.3389,0.364,0.3666,0.3873,0.394,0.4099,0.4111,0.4134,0.4198,0.3866,0.3743,0.4019,0.4002,0.3989,0.3976,0.3438,0.3432,0.3427,0.3423,0,0.2725,0.2762,0.2812,0.2852,0.2908,0.302,0.3114,0.3195,0.3376,0.349,0.3605,0.3693,0.3878,0.3794,0.388,0.3846,0.3834,0.3766,0.4187,0.3494,0.339,0.337,0.3378,0.3379,0.3383,0.3386,0.3389,0.339,0.2704,0.2735,0.2759,0.2809,0.2855,0.2885,0.2902,0.3006,0.3109,0.3186,0.3385,0.3412,0.3519,0.3493,0.3424,0.3405,0.3648,0.347,0.3481,0.3498,0.342,0.3322,0.3278,0.3282,0.3285,0.3288,0.3291,0,0.2623,0.2665,0.2695,0.272,0.2685,0.2768,0.2802,0.276,0.2772,0.2921,0.299,0.2831,0.283,0.2949,0.2861,0.2885,0.281,0.2761,0.2631,0.2681,0.2724,0.26,0.2244,0.224,0.2236,0.2233,0,0,0.258,0.2542,0.2567,0.2506,0.2528,0.2438,0.2413,0.2353,0.2395,0.2367,0.2405,0.2643,0.284,0.2478,0.2475,0.2333,0.2462,0.2243,0.3097,0.2992,0.3028,0.317,0.3043,0,0,0,0,0]},{"header":{"parameterUnit":"m.s-1","parameterCategory":2,"la1":30.2991,"la2":30.254,"lo1":-89.0895,"lo2":-89.0444,"dy":0.0017,"dx":0.0017,"nx":28,"ny":28,"refTime":"2024-03-17T09:00:00:Z","depth":"2","parameterNumber":3,"parameterNumberName":"V-component_of_CURRENTS"},"data":[0,0,0,0,0,0,0,0,0,0,0,0,0,0,0,0,0,0,0,0,0,0,0,0,0,0,0,0,0,0,0,0,0,0,0,0,0,0,0,0,0,0,0,0,0,0,0,0,0,0,0,0,0,0,0,0,0,0,0.0142,0.0141,0,0.0061,0.006,0.0059,0.0003,0.0003,0.0002,0.0002,-0.012,-0.0122,-0.0125,0,0,0,0,0,0,0,0,0,0,0,0,0,0.0184,0.0184,0.0142,0.0141,0.014,0.0061,0.006,0.0059,0.0003,0.0003,0.0002,0.0002,-0.0119,-0.0122,-0.0126,0,0,0,0,0,0,0,0,0,0,0,0,0,0.014,0.0184,0.0142,0.0103,0.0099,0.0061,0.006,0.0058,0.0003,0.0003,0.0002,0.0002,-0.0117,-0.0122,-0.0126,-0.0143,0,0,-0.0139,-0.0141,0,0,0,0,0,0,0,0,0.0143,0.0138,0.011,0.0106,0.0101,0.0042,0.003,-0.0011,0.0003,0.0038,0.0002,0.0001,-0.0068,-0.0077,-0.0091,-0.0148,-0.0154,-0.014,-0.0142,-0.0144,-0.0146,0,0,0,0,0,0,0,0.0146,0.0141,0.0109,0.0109,0.0104,0.0068,0.0062,0.0022,-0.0013,0.0035,0.0031,0.0024,-0.0071,-0.0087,-0.0095,-0.0155,-0.014,-0.0144,-0.0146,-0.0148,-0.0223,-0.0222,0,0,0,0,0,0,0.0162,0.0144,0.0111,0.0106,0.0122,0.0068,0.0061,0.0061,-0.0011,-0.0022,0.0025,0.0022,-0.0079,-0.009,-0.0099,-0.0121,-0.0144,-0.0148,-0.0151,-0.0223,-0.0223,-0.0222,0,0,0,0,0,0,0.0163,0.016,0.0115,0.0124,0.0116,0.0069,0.0068,0.006,0.0043,-0.0019,-0.0031,0.0017,-0.008,-0.0093,-0.012,-0.0126,-0.015,-0.0154,-0.0224,-0.0223,-0.0222,-0.0166,0,0,0,0,0,0,0.0165,0.0161,0.0163,0.0125,0.0116,0.0099,0.0069,0.0058,0.004,0.0035,-0.0029,-0.0041,-0.0082,-0.0113,-0.0124,-0.0133,-0.0158,-0.0225,-0.0224,-0.0222,-0.0169,-0.0163,-0.0158,0,0,0,0,0,0.0167,0.0178,0.0164,0.016,0.0122,0.01,0.0092,0.0055,0.004,0.0037,0.0003,-0.0039,-0.0114,-0.0115,-0.0129,-0.0139,-0.0225,-0.0224,-0.0223,-0.0171,-0.0164,-0.0159,0,0,0,0,0,0,0.0195,0.0172,0.0156,0.0159,0.0133,0.0091,0.0086,0.0061,0.0031,0.0027,-0.003,-0.0043,-0.0071,-0.0105,-0.0105,-0.0154,-0.0177,-0.0179,-0.0133,-0.0128,-0.0123,-0.0085,-0.0161,0,0,0,0,0,0.0205,0.0208,0.0175,0.0177,0.0169,0.0128,0.0113,0.009,0.006,0.0045,0.0003,-0.0039,-0.0075,-0.0099,-0.0135,-0.0161,-0.0184,-0.0176,-0.0171,-0.0166,-0.0143,-0.0186,-0.0183,-0.0217,-0.0217,-0.0217,0,0,0.0214,0.0203,0.0203,0.0183,0.0161,0.0162,0.0118,0.0104,0.0105,0.0037,0.0026,-0.0023,-0.0076,-0.0103,-0.012,-0.0134,-0.0167,-0.0164,-0.016,-0.0139,-0.0184,-0.0181,-0.0178,-0.0216,-0.0216,-0.0216,0,0,0.0246,0.0229,0.0245,0.023,0.0207,0.0185,0.0186,0.0148,0.0132,0.0116,0.0066,0.0027,-0.0028,-0.0068,-0.0095,-0.0081,-0.0136,-0.0105,-0.0057,-0.0099,-0.0097,-0.0095,-0.0114,-0.0114,-0.0107,-0.0107,-0.0106,0,0.0256,0.0275,0.0244,0.0256,0.0255,0.0204,0.0223,0.0199,0.0157,0.0156,0.0126,0.0053,-0.0006,-0.0035,-0.0038,-0.0071,-0.0096,-0.0079,-0.0093,-0.0091,-0.009,-0.011,-0.0111,-0.0104,-0.0104,-0.0104,-0.0105,0,0.0299,0.0312,0.0321,0.0324,0.0319,0.0324,0.0295,0.0287,0.0262,0.0237,0.0209,0.0131,0.0091,0.0051,0.0006,-0.0021,-0.0041,-0.008,-0.0107,-0.0083,-0.0106,-0.0108,-0.01,-0.0101,-0.0101,-0.0102,0,0,0.0329,0.0349,0.0352,0.0377,0.0359,0.0367,0.0372,0.0371,0.0391,0.0329,0.0344,0.0253,0.0206,0.0174,0.0096,0.0048,0.0015,-0.0012,-0.0016,-0.0027,-0.0063,-0.0093,-0.0098,-0.0036,-0.0037,-0.0037,-0.008,0,0.0371,0.0429,0.0419,0.0471,0.05,0.0468,0.0487,0.0478,0.0455,0.0453,0.0369,0.0349,0.0253,0.0228,0.0162,0.0057,0.0012,0.0032,-0.0086,-0.0088,-0.0116,-0.0101,-0.0072,-0.0109,-0.0082,-0.0083,-0.0083,0,0.0415,0.0454,0.052,0.0571,0.0581,0.0602,0.0637,0.0645,0.0622,0.0603,0.0556,0.049,0.0413,0.0326,0.0173,0.0187,0.0076,-0.0011,-0.0016,-0.0059,-0.0122,-0.0131,-0.0115,-0.0087,-0.0086,-0.0086,-0.0086,0,0.0473,0.0525,0.0591,0.0602,0.0644,0.0675,0.0697,0.0697,0.0729,0.07,0.0715,0.0608,0.0566,0.0414,0.0226,0.0198,0.0062,0.0001,-0.0123,-0.0125,-0.0128,-0.0131,-0.0096,-0.0096,-0.0096,-0.0096,-0.0096,0,0.0527,0.0578,0.0628,0.0665,0.0755,0.0754,0.0834,0.0838,0.0855,0.0916,0.0799,0.0813,0.0583,0.0471,0.0283,0.0086,0.0106,-0.0097,-0.0138,-0.0107,-0.0108,-0.0113,-0.0114,-0.0098,-0.0097,-0.0097,-0.0097,0,0.058,0.0604,0.069,0.0759,0.0786,0.0855,0.0937,0.0995,0.0994,0.1067,0.1069,0.0973,0.083,0.06,0.0362,0.0177,-0.0017,-0.0095,-0.0031,-0.0066,-0.0189,-0.0186,-0.0228,-0.0229,-0.023,-0.0231,-0.0232,0,0.0612,0.0661,0.0771,0.0833,0.0869,0.0961,0.1031,0.1064,0.1137,0.1177,0.1231,0.1117,0.1054,0.0697,0.036,0.0047,-0.0006,-0.0137,-0.0195,-0.0165,-0.0202,-0.0198,-0.0194,-0.0172,-0.0172,-0.0173,-0.0173,0,0.068,0.0718,0.0803,0.0938,0.1027,0.113,0.1237,0.1323,0.1379,0.1436,0.15,0.1453,0.111,0.0786,0.0341,0.0128,-0.009,-0.0153,-0.0133,-0.0148,-0.0118,-0.0153,-0.015,-0.0175,-0.0175,-0.0174,-0.0174,-0.0174,0.0739,0.081,0.0925,0.1054,0.1158,0.1298,0.1415,0.1525,0.166,0.1756,0.17,0.1618,0.1242,0.0664,0.0289,-0.0108,-0.0097,-0.0243,-0.024,-0.0238,-0.0228,-0.0203,-0.0272,-0.0272,-0.0272,-0.0273,-0.0273,0,0.082,0.0897,0.1027,0.1187,0.132,0.1358,0.155,0.1661,0.1836,0.1877,0.1898,0.1536,0.1158,0.0728,0.0134,-0.0219,-0.0242,-0.0324,-0.0279,-0.0274,-0.027,-0.0262,-0.0315,-0.0316,-0.0317,-0.0318,0,0,0.0863,0.1001,0.1067,0.1293,0.1406,0.1591,0.1715,0.1868,0.1947,0.1981,0.1912,0.1786,0.1269,0.0835,0.0358,0.0018,-0.0043,-0.0044,0.0029,0.0145,0.0153,-0.0184,-0.0161,0,0,0,0,0]}],[{"header":{"parameterUnit":"m.s-1","parameterCategory":2,"la1":30.2991,"la2":30.254,"lo1":-89.0895,"lo2":-89.0444,"dy":0.0017,"dx":0.0017,"nx":28,"ny":28,"refTime":"2024-03-17T09:00:00:Z","depth":"4","parameterNumber":2,"parameterNumberName":"U-component_of_CURRENTS"},"data":[0,0,0,0,0,0,0,0,0,0,0,0,0,0,0,0,0,0,0,0,0,0,0,0,0,0,0,0,0,0,0,0,0,0,0,0,0,0,0,0,0,0,0,0,0,0,0,0,0,0,0,0,0,0,0,0,0,0,0.1621,0.1622,0,0.1699,0.17,0.1701,0.1765,0.1766,0.1767,0.1767,0.1843,0.1845,0.1846,0,0,0,0,0,0,0,0,0,0,0,0,0,0.1523,0.1524,0.1621,0.1622,0.1623,0.1699,0.17,0.1701,0.1765,0.1766,0.1767,0.1768,0.1843,0.1844,0.1846,0,0,0,0,0,0,0,0,0,0,0,0,0,0.1578,0.1525,0.1621,0.1665,0.167,0.1699,0.17,0.1701,0.1765,0.1766,0.1767,0.1768,0.1842,0.1844,0.1846,0.1834,0,0,0.1852,0.1853,0,0,0,0,0,0,0,0,0.1575,0.1582,0.1658,0.1662,0.1668,0.1725,0.1694,0.1746,0.1764,0.1727,0.1767,0.1769,0.1804,0.1809,0.1819,0.1837,0.1841,0.1852,0.1853,0.1854,0.1855,0,0,0,0,0,0,0,0.1571,0.1579,0.1651,0.1659,0.1665,0.168,0.1689,0.1704,0.1756,0.1731,0.1736,0.1746,0.1806,0.1817,0.1821,0.1842,0.1852,0.1854,0.1855,0.1856,0.1957,0.1959,0,0,0,0,0,0,0.1564,0.1575,0.1648,0.1653,0.1625,0.1681,0.1691,0.1704,0.1757,0.1766,0.1745,0.1749,0.1813,0.1819,0.1824,0.1912,0.1854,0.1856,0.1857,0.1956,0.1957,0.1959,0,0,0,0,0,0,0.1561,0.1569,0.1645,0.1617,0.1628,0.1682,0.1696,0.1705,0.1757,0.1768,0.1778,0.1792,0.1814,0.1821,0.1866,0.1912,0.1857,0.1858,0.1954,0.1956,0.1958,0.2024,0,0,0,0,0,0,0.1558,0.1568,0.1593,0.1616,0.1629,0.1687,0.1695,0.1706,0.1759,0.1766,0.181,0.1816,0.1816,0.1864,0.1868,0.1913,0.186,0.1952,0.1955,0.1958,0.202,0.2028,0.2035,0,0,0,0,0,0.1554,0.1578,0.1593,0.1603,0.1655,0.1688,0.1697,0.1737,0.1761,0.1788,0.1816,0.1817,0.1886,0.1866,0.1871,0.1918,0.195,0.1954,0.1957,0.2016,0.2027,0.2035,0,0,0,0,0,0,0.1554,0.1588,0.1605,0.1641,0.1674,0.17,0.1735,0.1759,0.1803,0.1821,0.1831,0.1839,0.1897,0.1895,0.1873,0.1955,0.1921,0.1925,0.1964,0.1973,0.1981,0.1991,0.1862,0,0,0,0,0,0.1562,0.1591,0.1621,0.1655,0.1675,0.1712,0.1739,0.1766,0.1798,0.1822,0.1848,0.1878,0.1908,0.1932,0.1951,0.1993,0.2001,0.2027,0.2035,0.2042,0.2054,0.2104,0.2118,0.1971,0.1971,0.197,0,0,0.1571,0.1596,0.1613,0.1658,0.169,0.1718,0.1733,0.1784,0.1814,0.182,0.188,0.1907,0.1924,0.1973,0.2,0.1984,0.2088,0.2046,0.2052,0.206,0.211,0.2124,0.2137,0.1973,0.1973,0.1972,0,0,0.1587,0.1628,0.1651,0.1682,0.1735,0.1754,0.1776,0.1821,0.1855,0.1908,0.1922,0.1975,0.202,0.204,0.2056,0.2117,0.2126,0.2134,0.2186,0.2236,0.2249,0.226,0.2286,0.2299,0.214,0.214,0.214,0,0.16,0.163,0.1665,0.1696,0.1728,0.1772,0.1803,0.1837,0.1892,0.1925,0.194,0.2036,0.2051,0.2112,0.214,0.2137,0.2162,0.2149,0.2247,0.2258,0.2269,0.2293,0.2307,0.2144,0.2143,0.2143,0.2143,0,0.1618,0.1659,0.168,0.1728,0.1768,0.1807,0.1851,0.19,0.195,0.1985,0.2074,0.2107,0.2168,0.2185,0.2186,0.2272,0.2265,0.2249,0.2223,0.2288,0.2309,0.2322,0.2149,0.2148,0.2147,0.2146,0,0,0.16,0.1675,0.1686,0.1713,0.1791,0.1816,0.1883,0.1945,0.2001,0.207,0.2143,0.2213,0.2256,0.2276,0.2295,0.2343,0.2436,0.2342,0.2342,0.2368,0.2547,0.2411,0.2412,0.2449,0.2452,0.2454,0.253,0,0.1604,0.1654,0.1697,0.1753,0.1783,0.1852,0.1907,0.1978,0.2051,0.2129,0.2194,0.2274,0.2281,0.2337,0.2387,0.2433,0.2475,0.2416,0.248,0.2482,0.2354,0.2424,0.2463,0.254,0.2543,0.2545,0.2546,0,0.1601,0.1637,0.1691,0.1767,0.1789,0.1837,0.1946,0.2004,0.2121,0.219,0.2294,0.2344,0.2447,0.2433,0.2555,0.2527,0.2547,0.2568,0.2571,0.2431,0.237,0.2463,0.257,0.2568,0.2566,0.2565,0.2563,0,0.155,0.1629,0.1671,0.1699,0.1795,0.1847,0.1911,0.2033,0.2097,0.2248,0.2331,0.2438,0.2528,0.2581,0.2645,0.2619,0.2758,0.2713,0.26,0.259,0.2659,0.2646,0.278,0.278,0.2779,0.2779,0.2779,0,0.1515,0.1549,0.1658,0.1675,0.1747,0.1833,0.1926,0.2018,0.2151,0.2231,0.237,0.2456,0.258,0.2666,0.2683,0.2696,0.2794,0.2624,0.2609,0.2683,0.2672,0.2668,0.2654,0.2782,0.2781,0.2781,0.278,0,0.1437,0.1509,0.1557,0.1669,0.1723,0.1775,0.1923,0.1978,0.2146,0.2261,0.232,0.2508,0.2637,0.2722,0.282,0.2746,0.2762,0.2731,0.2819,0.2805,0.2543,0.2532,0.26,0.2596,0.2593,0.259,0.2588,0,0.1392,0.1412,0.1541,0.1583,0.1639,0.1741,0.1809,0.1967,0.2031,0.2269,0.2305,0.2499,0.2601,0.2641,0.2742,0.2768,0.2732,0.2707,0.2605,0.2551,0.253,0.2524,0.2518,0.2582,0.2582,0.2581,0.258,0,0.1293,0.1355,0.1389,0.1475,0.1552,0.1633,0.1744,0.1782,0.1961,0.2134,0.2244,0.2323,0.2466,0.255,0.2608,0.2611,0.2706,0.2671,0.2676,0.258,0.253,0.2511,0.2509,0.2568,0.257,0.2571,0.2572,0,0.1218,0.122,0.1274,0.134,0.1425,0.148,0.1568,0.1653,0.1743,0.2004,0.2036,0.2254,0.2432,0.2471,0.2518,0.253,0.2476,0.2366,0.2386,0.24,0.2302,0.2207,0.2147,0,0,0,0,0,0.1138,0.1117,0.1143,0.1191,0.1261,0.1331,0.1492,0.1585,0.1775,0.1796,0.1907,0.2027,0.2141,0.2262,0.2234,0.2424,0.2476,0.2379,0.2354,0.2503,0.2517,0.2422,0,0,0,0,0,0,0.107,0.1077,0.108,0.104,0.1063,0.1133,0.124,0.1387,0.1418,0.1635,0.172,0.1885,0.2038,0.2128,0.2187,0.222,0.2158,0.2515,0.2509,0.2496,0.2508,0.2519,0.2426,0,0,0,0,0]},{"header":{"parameterUnit":"m.s-1","parameterCategory":2,"la1":30.2991,"la2":30.254,"lo1":-89.0895,"lo2":-89.0444,"dy":0.0017,"dx":0.0017,"nx":28,"ny":28,"refTime":"2024-03-17T09:00:00:Z","depth":"4","parameterNumber":3,"parameterNumberName":"V-component_of_CURRENTS"},"data":[0,0,0,0,0,0,0,0,0,0,0,0,0,0,0,0,0,0,0,0,0,0,0,0,0,0,0,0,0,0,0,0,0,0,0,0,0,0,0,0,0,0,0,0,0,0,0,0,0,0,0,0,0,0,0,0,0,0,0.021,0.021,0,0.0169,0.0169,0.0168,0.0145,0.0145,0.0145,0.0145,0.008,0.0079,0.0077,0,0,0,0,0,0,0,0,0,0,0,0,0,0.0232,0.0232,0.021,0.021,0.0209,0.0169,0.0169,0.0168,0.0145,0.0145,0.0145,0.0145,0.0081,0.0079,0.0077,0,0,0,0,0,0,0,0,0,0,0,0,0,0.0209,0.0231,0.021,0.0193,0.0191,0.0169,0.0169,0.0168,0.0145,0.0145,0.0145,0.0145,0.0081,0.0079,0.0076,0.0062,0,0,0.0069,0.0068,0,0,0,0,0,0,0,0,0.0211,0.0209,0.0196,0.0194,0.0192,0.0162,0.0152,0.0131,0.0145,0.0163,0.0145,0.0145,0.0106,0.0101,0.0094,0.0059,0.0056,0.0068,0.0067,0.0066,0.0065,0,0,0,0,0,0,0,0.0212,0.021,0.0194,0.0196,0.0193,0.0175,0.0172,0.0148,0.0134,0.0161,0.0159,0.0155,0.0104,0.0096,0.0092,0.0055,0.0068,0.0066,0.0065,0.0064,0.0025,0.0025,0,0,0,0,0,0,0.022,0.0212,0.0195,0.0192,0.0202,0.0175,0.0171,0.0172,0.0135,0.013,0.0155,0.0154,0.01,0.0095,0.0089,0.0092,0.0066,0.0063,0.0062,0.0025,0.0025,0.0026,0,0,0,0,0,0,0.0221,0.0219,0.0197,0.0201,0.0197,0.0175,0.0175,0.0171,0.0166,0.0131,0.0125,0.0155,0.01,0.0093,0.0079,0.0088,0.0062,0.006,0.0024,0.0025,0.0025,0.0083,0,0,0,0,0,0,0.0222,0.022,0.0223,0.0202,0.0197,0.0192,0.0175,0.017,0.0164,0.0162,0.0129,0.0122,0.01,0.0083,0.0076,0.0084,0.0058,0.0023,0.0024,0.0025,0.0081,0.0086,0.009,0,0,0,0,0,0.0223,0.023,0.0223,0.0221,0.0202,0.0192,0.0188,0.0171,0.0164,0.0166,0.0146,0.0124,0.0084,0.0081,0.0073,0.0081,0.0023,0.0024,0.0025,0.0078,0.0085,0.009,0,0,0,0,0,0,0.0237,0.0228,0.022,0.0223,0.0211,0.0188,0.0188,0.0176,0.0161,0.0162,0.0128,0.0121,0.0112,0.0089,0.0086,0.0073,0.005,0.005,0.0093,0.0099,0.0104,0.0122,0.0056,0,0,0,0,0,0.0243,0.0249,0.0232,0.0234,0.0231,0.0211,0.0204,0.0195,0.0179,0.0173,0.015,0.0128,0.0109,0.0099,0.0079,0.007,0.0037,0.007,0.0075,0.0079,0.0089,0.0047,0.0049,0.0029,0.0029,0.0029,0,0,0.0248,0.0244,0.0246,0.0238,0.0228,0.0234,0.0207,0.0205,0.0213,0.0167,0.0171,0.0143,0.0111,0.0104,0.0098,0.0087,0.0066,0.008,0.0084,0.0092,0.0048,0.005,0.0052,0.003,0.003,0.003,0,0,0.0268,0.026,0.0275,0.027,0.0262,0.0252,0.0255,0.0238,0.0236,0.0233,0.0204,0.0183,0.0157,0.0136,0.0122,0.014,0.0093,0.0132,0.017,0.013,0.0131,0.0132,0.0087,0.0084,0.0135,0.0135,0.0135,0,0.0275,0.0292,0.0276,0.0288,0.0293,0.0266,0.0285,0.0276,0.0258,0.0261,0.0245,0.0206,0.0174,0.0165,0.0171,0.0151,0.0118,0.0151,0.0136,0.0136,0.0136,0.009,0.0085,0.0138,0.0137,0.0137,0.0137,0,0.0306,0.032,0.0328,0.0339,0.0341,0.0352,0.0343,0.0344,0.0336,0.0325,0.0316,0.0271,0.0251,0.0232,0.0207,0.0193,0.0167,0.0146,0.0122,0.0141,0.0092,0.0086,0.0142,0.0141,0.014,0.0139,0,0,0.0321,0.0347,0.0351,0.0374,0.0373,0.0384,0.0397,0.0406,0.0424,0.0394,0.0407,0.0364,0.0337,0.0319,0.0277,0.0238,0.0199,0.0197,0.0193,0.0155,0.0105,0.0078,0.0068,0.0174,0.0174,0.0173,0.0069,0,0.0353,0.04,0.0401,0.0446,0.0472,0.0459,0.0479,0.0481,0.0476,0.0477,0.0428,0.0423,0.0371,0.0362,0.0315,0.0231,0.0187,0.0229,0.0091,0.0087,0.0062,0.0061,0.0171,0.0064,0.0063,0.0062,0.0061,0,0.0383,0.0416,0.0472,0.0517,0.0527,0.0549,0.0583,0.0601,0.059,0.0581,0.0557,0.0516,0.0462,0.0414,0.0282,0.0311,0.0219,0.0145,0.0139,0.0092,0.0049,0.0042,0.0049,0.005,0.0051,0.0052,0.0053,0,0.0415,0.0465,0.052,0.0533,0.0574,0.0601,0.0628,0.0636,0.067,0.0654,0.0658,0.0585,0.0553,0.0433,0.0283,0.0283,0.0126,0.0104,-0.001,-0.0014,0.0017,0.0017,0.001,0.001,0.001,0.001,0.001,0,0.0447,0.049,0.0544,0.0573,0.0645,0.0657,0.073,0.0734,0.0757,0.0795,0.0724,0.0715,0.0556,0.0448,0.0304,0.0128,0.0139,-0.0002,-0.004,0.0042,0.0047,0.0011,0.0013,0.0006,0.0007,0.0008,0.0009,0,0.0472,0.0501,0.0572,0.0636,0.0663,0.0722,0.0809,0.0858,0.0862,0.0904,0.0903,0.0813,0.0665,0.0489,0.0283,0.0162,-0.0009,-0.0076,0.0025,-0.0006,-0.0127,-0.0121,-0.0206,-0.0208,-0.021,-0.0211,-0.0212,0,0.0489,0.0528,0.0627,0.0679,0.0714,0.0804,0.0866,0.0908,0.0963,0.096,0.0978,0.0855,0.0766,0.0466,0.0266,-0.0014,-0.0057,-0.0145,-0.0135,-0.012,-0.0148,-0.014,-0.0132,-0.0214,-0.0215,-0.0215,-0.0216,0,0.0524,0.0563,0.0628,0.0738,0.0816,0.0913,0.1003,0.1042,0.1085,0.1086,0.1039,0.0881,0.0705,0.0468,0.0245,0.0045,-0.0086,-0.0162,-0.016,-0.0151,-0.0131,-0.0155,-0.0146,-0.0221,-0.022,-0.022,-0.0219,0,0.0558,0.0608,0.0697,0.0795,0.0897,0.0989,0.1034,0.1089,0.1135,0.1122,0.11,0.0907,0.0802,0.0496,0.0292,0.0089,0.0035,-0.0027,-0.0033,-0.0029,0.0046,0.01,0.005,0,0,0,0,0,0.0591,0.065,0.0743,0.0853,0.0957,0.1016,0.1113,0.1146,0.1175,0.1154,0.1133,0.0967,0.0658,0.0529,0.0321,0.0244,-0.0012,-0.0008,-0.0089,-0.025,-0.0244,-0.0188,0,0,0,0,0,0,0.0607,0.0701,0.0747,0.0886,0.0963,0.1081,0.114,0.1158,0.1151,0.1141,0.0987,0.0911,0.0617,0.078,0.0317,0.0254,0.0172,-0.0147,-0.0152,-0.0253,-0.0248,-0.0243,-0.0184,0,0,0,0,0]}]]